TimeEDT,TemperatureF,Dew PointF,Humidity,Sea Level PressureIn,VisibilityMPH,Wind Direction,Wind SpeedMPH,Gust SpeedMPH,PrecipitationIn,Events,Conditions,WindDirDegrees,DateUTC
12:52 AM,44.1,39.9,85,30.25,10.0,Calm,Calm,-,N/A,,Overcast,0,2013-05-18 04:52:00
1:52 AM,44.1,39.9,85,30.25,10.0,Calm,Calm,-,N/A,,Overcast,0,2013-05-18 05:52:00
2:52 AM,43.0,39.0,86,30.25,10.0,Calm,Calm,-,N/A,,Overcast,0,2013-05-18 06:52:00
3:52 AM,42.1,39.0,89,30.26,10.0,Calm,Calm,-,N/A,,Overcast,0,2013-05-18 07:52:00
4:52 AM,39.9,36.0,86,30.27,10.0,Calm,Calm,-,N/A,,Scattered Clouds,0,2013-05-18 08:52:00
5:52 AM,36.0,34.0,93,30.29,10.0,Calm,Calm,-,N/A,,Clear,0,2013-05-18 09:52:00
6:52 AM,43.0,37.9,82,30.31,10.0,Calm,Calm,-,N/A,,Clear,0,2013-05-18 10:52:00
7:52 AM,50.0,39.9,68,30.32,10.0,Calm,Calm,-,N/A,,Clear,0,2013-05-18 11:52:00
8:52 AM,57.0,39.9,53,30.32,10.0,Calm,Calm,-,N/A,,Clear,0,2013-05-18 12:52:00
9:52 AM,60.1,39.0,46,30.31,10.0,Variable,4.6,-,N/A,,Clear,0,2013-05-18 13:52:00
10:52 AM,63.0,37.9,40,30.31,10.0,Calm,Calm,-,N/A,,Clear,0,2013-05-18 14:52:00
11:52 AM,64.0,36.0,35,30.30,10.0,NNW,5.8,-,N/A,,Overcast,330,2013-05-18 15:52:00
12:52 PM,66.0,34.0,30,30.28,10.0,Variable,3.5,-,N/A,,Mostly Cloudy,0,2013-05-18 16:52:00
1:52 PM,66.9,35.1,31,30.26,10.0,Variable,4.6,-,N/A,,Overcast,0,2013-05-18 17:52:00
2:52 PM,68.0,35.1,30,30.25,10.0,North,9.2,-,N/A,,Mostly Cloudy,350,2013-05-18 18:52:00
3:52 PM,66.0,35.1,32,30.24,10.0,ENE,4.6,-,N/A,,Mostly Cloudy,60,2013-05-18 19:52:00
4:52 PM,68.0,34.0,28,30.24,10.0,Calm,Calm,-,N/A,,Overcast,0,2013-05-18 20:52:00
5:52 PM,66.0,35.1,32,30.25,10.0,NNE,3.5,-,N/A,,Overcast,20,2013-05-18 21:52:00
6:52 PM,66.0,35.1,32,30.25,10.0,Calm,Calm,-,N/A,,Overcast,0,2013-05-18 22:52:00
7:52 PM,59.0,44.1,58,30.25,10.0,Calm,Calm,-,N/A,,Scattered Clouds,0,2013-05-18 23:52:00
8:52 PM,54.0,41.0,62,30.26,10.0,Calm,Calm,-,N/A,,Clear,0,2013-05-19 00:52:00
9:52 PM,52.0,43.0,71,30.27,10.0,Calm,Calm,-,N/A,,Overcast,0,2013-05-19 01:52:00
10:52 PM,50.0,42.1,74,30.27,10.0,Calm,Calm,-,N/A,,Overcast,0,2013-05-19 02:52:00
11:52 PM,48.0,42.1,80,30.27,10.0,Calm,Calm,-,N/A,,Mostly Cloudy,0,2013-05-19 03:52:00